Volver al catálogo

FENGYUN 1C DEB

LostSSO
NORAD 35189·DEBRIS·🇨🇳 China

Lanzado May 10, 1999 desde Taiyuan Satellite Launch Center

Loading…

Próximos Pases (próximas 24 horas)

TLE

ObsoletoSource: Space-Track

Época: Aug 15, 2024, 22:02 UTC

1 35189U 99025DNV 24228.91830690  .00007424  00000-0  42126-2 0  9999
2 35189  98.8893 277.1575 0062110  49.2347 311.4190 14.09253742567932

Sigue FENGYUN 1C DEB en tiempo real con AllMySat

Download on the App Store